MOLNIYA 1-81

Last updated on Jan. 25, 2020, 4:43 a.m. UTC

1 21426U 91043A   20024.23863425  .00000075  00000-0  00000-0 0  9995
2 21426  63.9357  93.0136 6945384 272.8861  16.3432  2.00621239209606
UTC
Height (km)
Latitude
Longitude
Inclination
Orbital Period
UTC large
Height (km)
Speed (km/s)
/
Latitude / Longitude
Inclination (degrees)
Orbital Period (minutes)
Azimuth
Elevation
Range (km)
Doppler Factor
iOS Compass Heading
iOS Angle

Next 30 passes for location: Hong Kong

Rise time Rise Azimuth (degrees) Set time Set Azimuth (degrees) Duration Max altitude (degrees)

No matching passes for this satellites